This is the latest recevied weather packets stored in our database for station/object N5KJT. If no packets are shown the sender has not sent any weather packets the latest 10 day(s).
| Time | Temp. | Humidity | Pressure | Rain* | Wind** | Luminosity | Snow |
|---|---|---|---|---|---|---|---|
| 1787901916 | 18.33° C | 67% | 1028.7 hPa | 0 mm | - | 0 W/m² | - |
| 1787901616 | 18.89° C | 66% | 1028.7 hPa | 0 mm | - | 0 W/m² | - |
| 1787901316 | 19.44° C | 62% | 1028.6 hPa | 0 mm | - | 0 W/m² | - |
| 1787901016 | 20° C | 61% | 1028.7 hPa | 0 mm | - | 0 W/m² | - |
| 1787900716 | 20° C | 61% | 1028.7 hPa | 0 mm | - | 0 W/m² | - |
| 1787900416 | 20° C | 61% | 1028.6 hPa | 0 mm | - | 0 W/m² | - |
| 1787900116 | 20° C | 59% | 1028.7 hPa | 0 mm | - | 0 W/m² | - |
| 1787899816 | 20.56° C | 59% | 1028.8 hPa | 0 mm | - | 0 W/m² | - |
| 1787899516 | 20.56° C | 60% | 1028.9 hPa | 0 mm | - | 0 W/m² | - |
| 1787899216 | 20.56° C | 59% | 1029 hPa | 0 mm | - | 0 W/m² | - |
| 1787898916 | 20.56° C | 59% | 1029 hPa | 0 mm | - | 0 W/m² | - |
| 1787898616 | 20.56° C | 59% | 1029.1 hPa | 0 mm | - | 0 W/m² | - |
| 1787898316 | 20.56° C | 59% | 1029.1 hPa | 0 mm | - | 0 W/m² | - |
| 1787898016 | 20.56° C | 59% | 1029.1 hPa | 0 mm | - | 0 W/m² | - |
| 1787897715 | 20.56° C | 60% | 1029.1 hPa | 0 mm | - | 0 W/m² | - |
| 1787897416 | 20.56° C | 59% | 1029 hPa | 0 mm | - | 0 W/m² | - |
| 1787897116 | 20.56° C | 58% | 1029 hPa | 0 mm | - | 0 W/m² | - |
| 1787896816 | 20.56° C | 57% | 1028.9 hPa | 0 mm | - | 0 W/m² | - |
| 1787896516 | 20.56° C | 58% | 1029 hPa | 0 mm | - | 0 W/m² | - |
| 1787896216 | 20.56° C | 58% | 1029.1 hPa | 0 mm | - | 0 W/m² | - |
| 1787895916 | 20.56° C | 57% | 1029.1 hPa | 0 mm | - | 0 W/m² | - |
| 1787895615 | 20.56° C | 56% | 1029.1 hPa | 0 mm | - | 0 W/m² | - |
| 1787895316 | 20.56° C | 58% | 1029.1 hPa | 0 mm | - | 0 W/m² | - |
| 1787895015 | 21.11° C | 56% | 1028.9 hPa | 0 mm | - | 0 W/m² | - |
| 1787894716 | 21.11° C | 53% | 1028.9 hPa | 0 mm | - | 0 W/m² | - |
* Rain latest hour (hover to see other rain measurements)
** Current wind speed in m/s (hover to see current wind gust speed)